RRR4526 ESPA-EGVN

Flight info

Callsign RRR4526
Flight time N/A
Altitude 36000
Route RISE5C RISEM T400 EGAGO/N0453F380 T400 ALOTI DCT ROBEM UP16 BEGAM/N0456F370 UP16 CROFT UL612 HON BZN
Aircraft A400/M-VGDW/C

Departure

Time 2026-05-01 12:22
Airport Luleå Airport (ESPA)

Arrival

Time N/A
Airport RAF Brize Norton (EGVN)
Time Latitude Longitude Altitude Speed Heading
2026-05-01 12:09 65.54635 22.10500 71 ft 0 kts 131°
2026-05-01 12:10 65.54629 22.10538 62 ft 5 kts 101°
2026-05-01 12:10 65.54654 22.10661 62 ft 10 kts 61°
2026-05-01 12:11 65.54649 22.11011 62 ft 14 kts 88°
2026-05-01 12:11 65.54704 22.11239 67 ft 17 kts 47°
2026-05-01 12:11 65.54792 22.11458 61 ft 20 kts 44°
2026-05-01 12:12 65.54881 22.11680 62 ft 7 kts 51°
2026-05-01 12:12 65.54879 22.11696 60 ft 2 kts 100°
2026-05-01 12:12 65.54855 22.11757 66 ft 8 kts 137°
2026-05-01 12:12 65.54798 22.11884 62 ft 14 kts 137°
2026-05-01 12:13 65.54716 22.12065 56 ft 18 kts 137°
2026-05-01 12:13 65.54614 22.12288 60 ft 21 kts 137°
2026-05-01 12:13 65.54572 22.12389 59 ft 0 kts 140°
2026-05-01 12:17 65.54570 22.12394 57 ft 3 kts 137°
2026-05-01 12:17 65.54518 22.12511 58 ft 14 kts 137°
2026-05-01 12:18 65.54435 22.12694 59 ft 18 kts 138°
2026-05-01 12:18 65.54333 22.12918 57 ft 21 kts 137°
2026-05-01 12:18 65.54220 22.13172 53 ft 23 kts 137°
2026-05-01 12:18 65.54098 22.13447 53 ft 25 kts 137°
2026-05-01 12:19 65.53968 22.13739 51 ft 25 kts 138°
2026-05-01 12:19 65.53870 22.13954 49 ft 20 kts 138°
2026-05-01 12:19 65.53762 22.14192 47 ft 22 kts 137°
2026-05-01 12:19 65.53643 22.14461 43 ft 24 kts 136°
2026-05-01 12:20 65.53516 22.14740 42 ft 24 kts 138°
2026-05-01 12:20 65.53382 22.14851 40 ft 17 kts 194°
2026-05-01 12:20 65.53311 22.14705 39 ft 13 kts 231°
2026-05-01 12:20 65.53312 22.14583 37 ft 4 kts 309°
2026-05-01 12:21 65.53323 22.14557 39 ft 0 kts 316°
2026-05-01 12:21 65.53344 22.14506 40 ft 23 kts 315°
2026-05-01 12:21 65.53716 22.13684 48 ft 122 kts 316°
2026-05-01 12:21 65.54464 22.11989 522 ft 156 kts 318°
2026-05-01 12:22 65.55255 22.10181 1522 ft 161 kts 308°
2026-05-01 12:22 65.55657 22.07587 2288 ft 184 kts 266°
2026-05-01 12:22 65.55022 22.04585 2802 ft 228 kts 224°
2026-05-01 12:22 65.53507 22.02910 3555 ft 251 kts 199°
2026-05-01 12:23 65.51777 22.01880 4475 ft 259 kts 198°
2026-05-01 12:23 65.50020 22.00745 5485 ft 263 kts 202°
2026-05-01 12:23 65.48355 21.98972 6440 ft 260 kts 222°
2026-05-01 12:23 65.47053 21.95994 7417 ft 257 kts 233°
2026-05-01 12:24 65.45900 21.92772 8466 ft 257 kts 235°
2026-05-01 12:24 65.44757 21.89453 9544 ft 259 kts 236°
2026-05-01 12:24 65.43604 21.86092 10489 ft 265 kts 236°
2026-05-01 12:24 65.42411 21.82618 11229 ft 274 kts 235°
2026-05-01 12:25 65.41178 21.79052 12050 ft 279 kts 235°
2026-05-01 12:25 65.38667 21.71833 13823 ft 284 kts 235°
2026-05-01 12:25 65.37394 21.68183 14629 ft 287 kts 235°
2026-05-01 12:26 65.36109 21.64506 15413 ft 289 kts 236°
2026-05-01 12:26 65.33502 21.57060 17018 ft 294 kts 236°
2026-05-01 12:26 65.32182 21.53300 17853 ft 296 kts 237°
2026-05-01 12:27 65.30849 21.49508 18608 ft 299 kts 237°
2026-05-01 12:27 65.28136 21.41811 19960 ft 306 kts 237°
2026-05-01 12:28 65.25356 21.33953 21318 ft 313 kts 237°
2026-05-01 12:28 65.23944 21.29974 21976 ft 316 kts 237°
2026-05-01 12:28 65.21067 21.21874 23280 ft 323 kts 237°
2026-05-01 12:29 65.19607 21.17764 23860 ft 326 kts 237°
2026-05-01 12:29 65.18136 21.13623 24377 ft 329 kts 237°
2026-05-01 12:29 65.15176 21.05310 25368 ft 333 kts 237°
2026-05-01 12:30 65.12136 20.96803 26314 ft 338 kts 237°
2026-05-01 12:30 65.10624 20.92586 26751 ft 340 kts 237°
2026-05-01 12:30 65.09067 20.88250 27165 ft 342 kts 237°
2026-05-01 12:31 65.07539 20.84002 27565 ft 344 kts 237°
2026-05-01 12:31 65.05980 20.79678 27942 ft 346 kts 237°
2026-05-01 12:31 65.04409 20.75327 28317 ft 348 kts 237°
2026-05-01 12:31 65.02831 20.70968 28674 ft 350 kts 237°
2026-05-01 12:32 65.01247 20.66599 29004 ft 352 kts 237°
2026-05-01 12:32 64.98028 20.57752 29676 ft 355 kts 237°
2026-05-01 12:32 64.96418 20.53346 30084 ft 354 kts 237°
2026-05-01 12:33 64.94810 20.48954 30444 ft 353 kts 237°
2026-05-01 12:33 64.93208 20.44587 30805 ft 352 kts 237°
2026-05-01 12:33 64.91602 20.40214 31164 ft 351 kts 237°
2026-05-01 12:33 64.90003 20.35867 31548 ft 350 kts 237°
2026-05-01 12:34 64.88389 20.31579 31930 ft 351 kts 235°
2026-05-01 12:34 64.86692 20.27420 32322 ft 352 kts 234°
2026-05-01 12:34 64.84974 20.23424 32714 ft 351 kts 233°
2026-05-01 12:34 64.83216 20.19435 33134 ft 351 kts 233°
2026-05-01 12:35 64.81455 20.15469 33539 ft 350 kts 233°
2026-05-01 12:35 64.79699 20.11513 33960 ft 349 kts 233°
2026-05-01 12:35 64.77954 20.07570 34312 ft 348 kts 233°
2026-05-01 12:35 64.76211 20.03615 34614 ft 349 kts 233°
2026-05-01 12:36 64.74462 19.99638 34910 ft 350 kts 232°
2026-05-01 12:36 64.72716 19.95666 35201 ft 351 kts 232°
2026-05-01 12:36 64.70959 19.91675 35486 ft 352 kts 232°
2026-05-01 12:36 64.69199 19.87687 35741 ft 353 kts 232°
2026-05-01 12:37 64.67429 19.83685 35965 ft 353 kts 232°
2026-05-01 12:37 64.65663 19.79699 36008 ft 355 kts 231°
2026-05-01 12:37 64.62104 19.71697 36007 ft 355 kts 231°
2026-05-01 12:38 64.58535 19.63708 36009 ft 355 kts 231°
2026-05-01 12:38 64.54993 19.55806 36012 ft 355 kts 231°
2026-05-01 12:39 64.51421 19.47866 36020 ft 355 kts 231°
2026-05-01 12:39 64.47841 19.39938 36025 ft 355 kts 231°
2026-05-01 12:40 64.44262 19.32042 36029 ft 355 kts 231°
2026-05-01 12:40 64.40672 19.24151 36030 ft 355 kts 231°
2026-05-01 12:41 64.37084 19.16296 36034 ft 355 kts 231°
2026-05-01 12:41 64.33490 19.08458 36031 ft 355 kts 231°
2026-05-01 12:42 64.29918 19.00697 36033 ft 355 kts 231°
2026-05-01 12:42 64.26316 18.92897 36032 ft 355 kts 230°
2026-05-01 12:43 64.22716 18.85133 36032 ft 355 kts 230°
2026-05-01 12:43 64.19109 18.77382 36035 ft 355 kts 230°
2026-05-01 12:44 64.15533 18.69606 36033 ft 352 kts 233°
2026-05-01 12:45 64.09515 18.52220 36036 ft 347 kts 239°
2026-05-01 12:45 64.06636 18.43376 36036 ft 347 kts 239°
2026-05-01 12:46 64.03761 18.34604 36043 ft 347 kts 239°
2026-05-01 12:46 64.00850 18.25791 36042 ft 347 kts 239°
2026-05-01 12:47 63.97930 18.17003 36039 ft 347 kts 239°
2026-05-01 12:47 63.95002 18.08235 36047 ft 348 kts 239°
2026-05-01 12:48 63.92089 17.99546 36041 ft 348 kts 238°
2026-05-01 12:48 63.89151 17.90813 36052 ft 348 kts 238°
2026-05-01 12:49 63.86207 17.82095 36040 ft 348 kts 238°
2026-05-01 12:49 63.83254 17.73383 36043 ft 349 kts 238°
2026-05-01 12:50 63.80293 17.64683 36048 ft 349 kts 238°
2026-05-01 12:50 63.77323 17.55991 36050 ft 349 kts 238°
2026-05-01 12:51 63.74346 17.47309 36054 ft 349 kts 238°
2026-05-01 12:52 63.69866 17.34311 36055 ft 350 kts 238°
2026-05-01 12:52 63.65384 17.21383 36057 ft 350 kts 238°
2026-05-01 12:53 63.60868 17.08427 36057 ft 351 kts 238°
2026-05-01 12:54 63.57848 16.99807 36061 ft 351 kts 237°
2026-05-01 12:54 63.53313 16.86926 36062 ft 350 kts 237°
2026-05-01 12:55 63.48784 16.74133 36061 ft 350 kts 237°
2026-05-01 12:56 63.45749 16.65597 36064 ft 351 kts 237°
2026-05-01 12:56 63.43200 16.58457 36065 ft 351 kts 237°
2026-05-01 12:57 63.40171 16.49999 36057 ft 350 kts 237°
2026-05-01 12:57 63.35597 16.37289 36061 ft 350 kts 237°
2026-05-01 12:58 63.32543 16.28841 36063 ft 350 kts 237°
2026-05-01 12:59 63.27945 16.16183 36063 ft 351 kts 237°
2026-05-01 12:59 63.23332 16.03556 36059 ft 351 kts 236°
2026-05-01 13:00 63.18703 15.90954 36063 ft 351 kts 236°
2026-05-01 13:01 63.14076 15.78430 36058 ft 352 kts 236°
2026-05-01 13:02 63.09416 15.65889 36060 ft 352 kts 236°
2026-05-01 13:07 62.74845 14.74953 36040 ft 354 kts 235°
2026-05-01 13:08 62.71660 14.66759 36038 ft 354 kts 235°
2026-05-01 13:08 62.68492 14.58638 36040 ft 354 kts 235°
2026-05-01 13:09 62.65299 14.50481 36033 ft 354 kts 234°
2026-05-01 13:09 62.62090 14.42369 36036 ft 354 kts 234°
2026-05-01 13:10 62.58825 14.34347 36036 ft 354 kts 233°
2026-05-01 13:10 62.55541 14.26358 36036 ft 355 kts 233°
2026-05-01 13:11 62.52255 14.18379 36039 ft 355 kts 233°
2026-05-01 13:11 62.48968 14.10416 36039 ft 355 kts 233°
2026-05-01 13:12 62.45699 14.02518 36039 ft 354 kts 233°
2026-05-01 13:12 62.42402 13.94581 36038 ft 354 kts 233°
2026-05-01 13:13 62.39102 13.86664 36039 ft 354 kts 233°
2026-05-01 13:13 62.35795 13.78759 36040 ft 355 kts 233°
2026-05-01 13:14 62.32485 13.70875 36039 ft 355 kts 233°
2026-05-01 13:14 62.29193 13.63061 36040 ft 355 kts 233°
2026-05-01 13:15 62.25878 13.55223 36043 ft 355 kts 233°
2026-05-01 13:15 62.22554 13.47388 36043 ft 355 kts 233°
2026-05-01 13:16 62.19227 13.39576 36041 ft 355 kts 233°
2026-05-01 13:16 62.15894 13.31779 36046 ft 354 kts 233°
2026-05-01 13:17 62.09247 13.16306 36050 ft 354 kts 232°
2026-05-01 13:18 62.04241 13.04722 36053 ft 354 kts 232°
2026-05-01 13:18 62.00887 12.96996 36055 ft 354 kts 232°
2026-05-01 13:19 61.97539 12.89310 36057 ft 354 kts 232°
2026-05-01 13:20 61.92508 12.77813 36064 ft 354 kts 232°
2026-05-01 13:20 61.89162 12.70197 36065 ft 354 kts 232°
2026-05-01 13:21 61.84119 12.58771 36072 ft 354 kts 232°
2026-05-01 13:21 61.80753 12.51176 36068 ft 353 kts 232°
2026-05-01 13:22 61.77388 12.43611 36075 ft 353 kts 232°
2026-05-01 13:22 61.74019 12.36059 36080 ft 353 kts 232°
2026-05-01 13:23 61.70651 12.28539 36083 ft 352 kts 232°
2026-05-01 13:23 61.67301 12.21080 36089 ft 352 kts 232°
2026-05-01 13:24 61.63940 12.13588 36093 ft 352 kts 232°
2026-05-01 13:25 61.58894 12.02368 36091 ft 351 kts 232°
2026-05-01 13:25 61.55545 11.94955 36095 ft 350 kts 232°
2026-05-01 13:26 61.52190 11.87552 36102 ft 350 kts 232°
2026-05-01 13:26 61.48835 11.80176 36116 ft 349 kts 231°
2026-05-01 13:27 61.45482 11.72831 36104 ft 349 kts 231°
2026-05-01 13:27 61.40448 11.61848 36114 ft 348 kts 231°
2026-05-01 13:28 61.35406 11.50902 36114 ft 348 kts 231°
2026-05-01 13:29 61.28686 11.36398 36110 ft 348 kts 231°
2026-05-01 13:31 61.18599 11.14801 36122 ft 348 kts 231°
2026-05-01 13:32 61.10145 10.96863 36125 ft 348 kts 230°
2026-05-01 13:33 61.01677 10.79043 36127 ft 349 kts 230°
2026-05-01 13:34 60.94851 10.64781 36127 ft 349 kts 230°
2026-05-01 13:35 60.89740 10.54166 36122 ft 350 kts 230°
2026-05-01 13:36 60.84597 10.43532 36130 ft 350 kts 230°
2026-05-01 13:36 60.79435 10.32912 36132 ft 350 kts 230°
2026-05-01 13:37 60.76569 10.27038 36133 ft 351 kts 230°
2026-05-01 13:37 60.73123 10.19997 36128 ft 350 kts 229°
2026-05-01 13:38 60.67346 10.08242 36143 ft 351 kts 229°
2026-05-01 13:39 60.63885 10.01229 36145 ft 351 kts 229°
2026-05-01 13:39 60.60417 9.94226 36144 ft 351 kts 229°
2026-05-01 13:40 60.56949 9.87245 36151 ft 351 kts 229°
2026-05-01 13:40 60.53500 9.80322 36156 ft 351 kts 229°
2026-05-01 13:41 60.50023 9.73367 36157 ft 351 kts 229°
2026-05-01 13:41 60.46539 9.66421 36159 ft 351 kts 229°
2026-05-01 13:42 60.43052 9.59490 36162 ft 351 kts 229°
2026-05-01 13:42 60.39561 9.52572 36161 ft 351 kts 229°
2026-05-01 13:43 60.36070 9.45680 36166 ft 350 kts 229°
2026-05-01 13:43 60.33188 9.39927 36165 ft 349 kts 231°
2026-05-01 13:44 60.30119 9.32370 36167 ft 347 kts 236°
2026-05-01 13:44 60.27205 9.24608 36169 ft 347 kts 236°
2026-05-01 13:45 60.24337 9.16870 36175 ft 347 kts 236°
2026-05-01 13:45 60.21438 9.09092 36179 ft 347 kts 236°
2026-05-01 13:46 60.18534 9.01353 36183 ft 347 kts 236°
2026-05-01 13:46 60.15619 8.93628 36189 ft 346 kts 236°
2026-05-01 13:47 60.12695 8.85898 36197 ft 348 kts 236°
2026-05-01 13:47 60.09769 8.78192 36189 ft 347 kts 236°
2026-05-01 13:48 60.06837 8.70491 36198 ft 348 kts 235°
2026-05-01 13:48 60.03897 8.62796 36203 ft 347 kts 235°
2026-05-01 13:49 60.00957 8.55127 36203 ft 347 kts 235°
2026-05-01 13:49 59.98010 8.47466 36205 ft 348 kts 235°
2026-05-01 13:50 59.95225 8.40246 36217 ft 348 kts 235°
2026-05-01 13:50 59.92282 8.32645 36217 ft 348 kts 235°
2026-05-01 13:51 59.89316 8.25006 36214 ft 348 kts 234°
2026-05-01 13:51 59.86348 8.17389 36216 ft 348 kts 234°
2026-05-01 13:52 59.83372 8.09777 36221 ft 348 kts 234°
2026-05-01 13:52 59.80393 8.02181 36216 ft 348 kts 234°
2026-05-01 13:53 59.77408 7.94594 36224 ft 349 kts 234°
2026-05-01 13:53 59.72917 7.83226 36227 ft 349 kts 234°
2026-05-01 13:54 59.69919 7.75670 36229 ft 349 kts 234°
2026-05-01 13:54 59.66909 7.68105 36234 ft 350 kts 234°
2026-05-01 13:55 59.63892 7.60549 36235 ft 350 kts 234°
2026-05-01 13:55 59.60892 7.53060 36230 ft 350 kts 233°
2026-05-01 13:56 59.57865 7.45525 36234 ft 350 kts 233°
2026-05-01 13:56 59.54834 7.38006 36235 ft 350 kts 233°
2026-05-01 13:57 59.51794 7.30490 36239 ft 350 kts 233°
2026-05-01 13:57 59.48749 7.22984 36242 ft 351 kts 233°
2026-05-01 13:58 59.45700 7.15495 36242 ft 350 kts 233°
2026-05-01 13:58 59.42649 7.08023 36242 ft 351 kts 233°
2026-05-01 13:59 59.39607 7.00597 36243 ft 351 kts 233°
2026-05-01 13:59 59.36539 6.93133 36241 ft 351 kts 233°
2026-05-01 14:00 59.33468 6.85675 36239 ft 351 kts 233°
2026-05-01 14:00 59.30526 6.78030 36238 ft 351 kts 235°
2026-05-01 14:01 59.27681 6.70266 36235 ft 351 kts 236°
2026-05-01 14:01 59.24835 6.62505 36230 ft 351 kts 235°
2026-05-01 14:02 59.21972 6.54778 36235 ft 351 kts 235°
2026-05-01 14:02 59.19100 6.47080 36236 ft 351 kts 235°
2026-05-01 14:03 59.16218 6.39388 36233 ft 351 kts 235°
2026-05-01 14:03 59.13351 6.31760 36230 ft 351 kts 235°
2026-05-01 14:04 59.10458 6.24085 36232 ft 351 kts 234°
2026-05-01 14:04 59.08031 6.17667 36233 ft 351 kts 234°
2026-05-01 14:05 59.04659 6.08775 36235 ft 352 kts 234°
2026-05-01 14:05 59.01751 6.01136 36235 ft 352 kts 234°
2026-05-01 14:06 58.98836 5.93502 36238 ft 352 kts 234°
2026-05-01 14:06 58.95920 5.85888 36238 ft 352 kts 234°
2026-05-01 14:07 58.92997 5.78280 36238 ft 352 kts 234°
2026-05-01 14:08 58.88624 5.66946 36236 ft 352 kts 234°
2026-05-01 14:08 58.85561 5.59576 36239 ft 352 kts 230°
2026-05-01 14:09 58.82310 5.52496 36237 ft 352 kts 229°
2026-05-01 14:09 58.79028 5.45457 36237 ft 353 kts 229°
2026-05-01 14:10 58.75761 5.38409 36237 ft 353 kts 230°
2026-05-01 14:10 58.72491 5.31327 36237 ft 353 kts 230°
2026-05-01 14:11 58.69246 5.24309 36234 ft 353 kts 229°
2026-05-01 14:11 58.64345 5.13750 36235 ft 353 kts 229°
2026-05-01 14:12 58.61067 5.06720 36234 ft 353 kts 229°
2026-05-01 14:12 58.57789 4.99708 36230 ft 353 kts 229°
2026-05-01 14:13 58.55059 4.93887 36228 ft 353 kts 229°
2026-05-01 14:13 58.51215 4.85714 36226 ft 353 kts 229°
2026-05-01 14:14 58.47918 4.78726 36224 ft 353 kts 229°
2026-05-01 14:14 58.44638 4.71797 36221 ft 353 kts 229°
2026-05-01 14:15 58.41331 4.64830 36222 ft 354 kts 229°
2026-05-01 14:15 58.38025 4.57888 36219 ft 354 kts 229°
2026-05-01 14:16 58.34714 4.50954 36218 ft 354 kts 229°
2026-05-01 14:16 58.31413 4.44064 36214 ft 354 kts 228°
2026-05-01 14:17 58.28095 4.37158 36210 ft 354 kts 228°
2026-05-01 14:17 58.24768 4.30255 36208 ft 354 kts 228°
2026-05-01 14:18 58.21437 4.23366 36209 ft 354 kts 228°
2026-05-01 14:18 58.18670 4.17657 36206 ft 354 kts 228°
2026-05-01 14:19 58.14765 4.09627 36206 ft 354 kts 228°
2026-05-01 14:19 58.11422 4.02775 36206 ft 354 kts 228°
2026-05-01 14:20 58.06397 3.92512 36200 ft 354 kts 228°
2026-05-01 14:21 58.03063 3.85726 36200 ft 354 kts 227°
2026-05-01 14:21 57.99707 3.78918 36200 ft 354 kts 227°
2026-05-01 14:22 57.94661 3.68720 36199 ft 355 kts 227°
2026-05-01 14:22 57.91292 3.61931 36196 ft 355 kts 227°
2026-05-01 14:23 57.87962 3.55074 36194 ft 355 kts 228°
2026-05-01 14:23 57.84657 3.48166 36193 ft 355 kts 228°
2026-05-01 14:24 57.81378 3.41324 36189 ft 355 kts 228°
2026-05-01 14:24 57.78068 3.34456 36192 ft 355 kts 228°
2026-05-01 14:25 57.74752 3.27605 36190 ft 355 kts 228°
2026-05-01 14:25 57.71432 3.20768 36190 ft 355 kts 228°
2026-05-01 14:26 57.66437 3.10519 36185 ft 355 kts 228°
2026-05-01 14:27 57.63099 3.03695 36185 ft 356 kts 227°
2026-05-01 14:27 57.59762 2.96891 36180 ft 356 kts 227°
2026-05-01 14:28 57.54762 2.86735 36179 ft 356 kts 227°
2026-05-01 14:28 57.51405 2.79942 36173 ft 356 kts 227°
2026-05-01 14:29 57.48050 2.73171 36170 ft 356 kts 227°
2026-05-01 14:30 57.41330 2.59670 36168 ft 356 kts 227°
2026-05-01 14:31 57.36846 2.50705 36162 ft 356 kts 227°
2026-05-01 14:31 57.33473 2.43984 36165 ft 356 kts 227°
2026-05-01 14:32 57.29537 2.36167 36167 ft 357 kts 227°
2026-05-01 14:32 57.26720 2.30587 36169 ft 357 kts 227°
2026-05-01 14:33 57.23328 2.23887 36168 ft 357 kts 226°
2026-05-01 14:33 57.19931 2.17196 36166 ft 357 kts 226°
2026-05-01 14:34 57.16530 2.10516 36169 ft 357 kts 226°
2026-05-01 14:34 57.13126 2.03850 36169 ft 357 kts 226°
2026-05-01 14:35 57.09715 1.97186 36170 ft 357 kts 226°
2026-05-01 14:35 57.06299 1.90535 36167 ft 358 kts 226°
2026-05-01 14:36 57.02898 1.83930 36163 ft 358 kts 226°
2026-05-01 14:36 56.99470 1.77291 36164 ft 358 kts 226°
2026-05-01 14:37 56.96035 1.70659 36162 ft 358 kts 226°
2026-05-01 14:37 56.92599 1.64043 36163 ft 359 kts 226°
2026-05-01 14:38 56.89155 1.57432 36160 ft 359 kts 226°
2026-05-01 14:38 56.85705 1.50827 36161 ft 359 kts 226°
2026-05-01 14:39 56.82272 1.44273 36159 ft 359 kts 226°
2026-05-01 14:39 56.78809 1.37680 36160 ft 359 kts 225°
2026-05-01 14:40 56.75344 1.31104 36158 ft 359 kts 225°
2026-05-01 14:40 56.71874 1.24535 36155 ft 360 kts 225°
2026-05-01 14:41 56.68395 1.17970 36157 ft 360 kts 225°
2026-05-01 14:41 56.64915 1.11420 36156 ft 360 kts 225°
2026-05-01 14:42 56.61450 1.04917 36152 ft 360 kts 225°
2026-05-01 14:42 56.57958 0.98382 36154 ft 360 kts 225°
2026-05-01 14:43 56.54462 0.91858 36150 ft 361 kts 225°
2026-05-01 14:43 56.50955 0.85332 36147 ft 361 kts 225°
2026-05-01 14:44 56.47444 0.78816 36146 ft 361 kts 225°
2026-05-01 14:44 56.42188 0.69098 36146 ft 362 kts 225°
2026-05-01 14:45 56.36906 0.59372 36145 ft 362 kts 224°
2026-05-01 14:46 56.33367 0.52878 36143 ft 362 kts 224°
2026-05-01 14:46 56.28078 0.43208 36141 ft 363 kts 224°
2026-05-01 14:47 56.24531 0.36745 36140 ft 363 kts 224°
2026-05-01 14:48 56.19192 0.27051 36142 ft 364 kts 224°
2026-05-01 14:48 56.13843 0.17378 36138 ft 364 kts 224°
2026-05-01 14:49 56.06711 0.04547 36136 ft 365 kts 224°
2026-05-01 14:50 55.99527 -0.08308 36133 ft 365 kts 224°
2026-05-01 14:51 55.94128 -0.17920 36128 ft 366 kts 224°
2026-05-01 14:52 55.88705 -0.27536 36130 ft 366 kts 224°
2026-05-01 14:53 55.83273 -0.37129 36129 ft 367 kts 223°
2026-05-01 14:53 55.79660 -0.43487 36124 ft 367 kts 223°
2026-05-01 14:54 55.76021 -0.49872 36121 ft 368 kts 223°
2026-05-01 14:54 55.72371 -0.56258 36124 ft 368 kts 223°
2026-05-01 14:55 55.68720 -0.62629 36122 ft 368 kts 223°
2026-05-01 14:55 55.65062 -0.68995 36119 ft 369 kts 223°
2026-05-01 14:56 55.61394 -0.75359 36116 ft 369 kts 223°
2026-05-01 14:56 55.57714 -0.81728 36115 ft 370 kts 223°
2026-05-01 14:57 55.54031 -0.88084 36111 ft 370 kts 223°
2026-05-01 14:57 55.48519 -0.97564 36108 ft 371 kts 223°
2026-05-01 14:58 55.44811 -1.03866 36105 ft 371 kts 222°
2026-05-01 14:58 55.41030 -1.10059 36102 ft 371 kts 221°
2026-05-01 14:59 55.37222 -1.16223 36100 ft 371 kts 221°
2026-05-01 14:59 55.33418 -1.22376 36101 ft 371 kts 221°
2026-05-01 15:00 55.27738 -1.31558 36099 ft 372 kts 221°
2026-05-01 15:01 55.23920 -1.37712 36095 ft 372 kts 221°
2026-05-01 15:01 55.20127 -1.43811 36096 ft 372 kts 221°
2026-05-01 15:02 55.16315 -1.49922 36098 ft 372 kts 221°
2026-05-01 15:02 55.12495 -1.56030 36102 ft 372 kts 221°
2026-05-01 15:03 55.08676 -1.62119 36101 ft 372 kts 221°
2026-05-01 15:03 55.04844 -1.68213 36104 ft 372 kts 221°
2026-05-01 15:04 55.01029 -1.74264 36104 ft 373 kts 221°
2026-05-01 15:04 54.97180 -1.80350 36101 ft 373 kts 221°
2026-05-01 15:05 54.93164 -1.86028 36097 ft 372 kts 211°
2026-05-01 15:05 54.88400 -1.89400 36096 ft 372 kts 194°
2026-05-01 15:06 54.83326 -1.91235 36090 ft 372 kts 191°
2026-05-01 15:06 54.78219 -1.92766 36090 ft 372 kts 190°
2026-05-01 15:07 54.73149 -1.94284 36086 ft 373 kts 191°
2026-05-01 15:07 54.68037 -1.95863 36091 ft 373 kts 191°
2026-05-01 15:08 54.62929 -1.97461 36093 ft 373 kts 191°
2026-05-01 15:08 54.57829 -1.99059 36095 ft 373 kts 191°
2026-05-01 15:09 54.52726 -2.00650 36096 ft 373 kts 191°
2026-05-01 15:09 54.48485 -2.01969 36095 ft 372 kts 191°
2026-05-01 15:10 54.45940 -2.02759 36096 ft 372 kts 191°
2026-05-01 15:10 54.38284 -2.05128 36100 ft 372 kts 191°
2026-05-01 15:11 54.30632 -2.07488 36103 ft 372 kts 191°
2026-05-01 15:12 54.25529 -2.09056 36105 ft 372 kts 191°
2026-05-01 15:12 54.17898 -2.11549 36110 ft 372 kts 196°
2026-05-01 15:13 54.11061 -2.17507 36113 ft 372 kts 213°
2026-05-01 15:14 54.06807 -2.22569 36120 ft 372 kts 214°
2026-05-01 15:14 54.00280 -2.29622 36127 ft 371 kts 204°
2026-05-01 15:15 53.90677 -2.36062 36128 ft 371 kts 200°
2026-05-01 15:16 53.81093 -2.42136 36138 ft 371 kts 200°
2026-05-01 15:18 53.69043 -2.49821 36143 ft 370 kts 200°
2026-05-01 15:19 53.58933 -2.50958 36143 ft 373 kts 166°
2026-05-01 15:19 53.51633 -2.46218 36132 ft 376 kts 159°
2026-05-01 15:20 53.44428 -2.40968 36133 ft 376 kts 159°
2026-05-01 15:21 53.39602 -2.37529 35885 ft 377 kts 159°
2026-05-01 15:21 53.37185 -2.35827 35635 ft 377 kts 160°
2026-05-01 15:21 53.34765 -2.34129 35383 ft 377 kts 160°
2026-05-01 15:21 53.32336 -2.32429 35133 ft 378 kts 160°
2026-05-01 15:22 53.28300 -2.29608 34740 ft 378 kts 160°
2026-05-01 15:22 53.25081 -2.27362 34420 ft 379 kts 160°
2026-05-01 15:22 53.22645 -2.25663 34171 ft 379 kts 160°
2026-05-01 15:23 53.21003 -2.24520 33992 ft 380 kts 160°
2026-05-01 15:23 53.18592 -2.22841 33716 ft 380 kts 160°
2026-05-01 15:23 53.16151 -2.21144 33445 ft 380 kts 160°
2026-05-01 15:23 53.13706 -2.19448 33170 ft 379 kts 160°
2026-05-01 15:24 53.11273 -2.17765 32902 ft 379 kts 160°
2026-05-01 15:24 53.08836 -2.16080 32638 ft 379 kts 160°
2026-05-01 15:24 53.06395 -2.14394 32377 ft 378 kts 160°
2026-05-01 15:24 53.03968 -2.12718 32116 ft 378 kts 160°
2026-05-01 15:25 53.01540 -2.11043 31850 ft 378 kts 160°
2026-05-01 15:25 52.99110 -2.09369 31466 ft 378 kts 160°
2026-05-01 15:25 52.96683 -2.07699 30859 ft 377 kts 160°
2026-05-01 15:25 52.94256 -2.06029 30222 ft 376 kts 160°
2026-05-01 15:26 52.91841 -2.04372 29508 ft 376 kts 160°
2026-05-01 15:26 52.89452 -2.02733 28848 ft 375 kts 160°
2026-05-01 15:26 52.87051 -2.01088 28318 ft 372 kts 160°
2026-05-01 15:26 52.84667 -1.99456 27850 ft 369 kts 160°
2026-05-01 15:27 52.82302 -1.97840 27358 ft 367 kts 160°
2026-05-01 15:27 52.80111 -1.96344 26898 ft 364 kts 160°
2026-05-01 15:27 52.77775 -1.94751 26409 ft 362 kts 160°
2026-05-01 15:28 52.73155 -1.91606 25424 ft 356 kts 160°
2026-05-01 15:28 52.70870 -1.90054 24961 ft 354 kts 160°
2026-05-01 15:28 52.68603 -1.88516 24480 ft 352 kts 160°
2026-05-01 15:29 52.64097 -1.85463 23494 ft 347 kts 160°
2026-05-01 15:29 52.61867 -1.83954 22982 ft 344 kts 160°
2026-05-01 15:29 52.57489 -1.80998 22055 ft 340 kts 160°
2026-05-01 15:30 52.53149 -1.78074 21117 ft 335 kts 160°
2026-05-01 15:31 52.44635 -1.72355 19257 ft 326 kts 160°
2026-05-01 15:31 52.40465 -1.69563 18327 ft 321 kts 160°
2026-05-01 15:32 52.36339 -1.66889 17368 ft 315 kts 165°
2026-05-01 15:32 52.32072 -1.65945 16488 ft 310 kts 177°
2026-05-01 15:33 52.25680 -1.65342 15498 ft 305 kts 177°
2026-05-01 15:34 52.19395 -1.64727 14142 ft 298 kts 177°